Terminal Aerodrome Forecast
Issued by NWS Memphis, TN

Home | Current Version | Previous Version | Text Only | Print | Product List | Glossary On
Versions: 1 2 3 4 5 6 7 8 9 10 11 12 13 14 15 16 17
000
FTUS44 KMEG 010900 AAA
TAFMKL
TAF AMD
KMKL 010900Z 0109/0206 03004KT P6SM VCSH BKN025 OVC060
      TEMPO 0112/0114 -SHRA
     FM011400 19005KT 6SM -SHRA BKN015 OVC045
     FM011600 VRB03KT 5SM -SHRA BR OVC008
     FM012300 01005KT 6SM BR VCSH OVC005=

USA.gov is the U.S. government's official web portal to all federal, state and local government web resources and services.